This is the latest recevied weather packets stored in our database for station/object OH6HPS. If no packets are shown the sender has not sent any weather packets the latest 10 day(s).
| Time | Temp. | Humidity | Pressure | Rain* | Wind** | Luminosity | Snow |
|---|---|---|---|---|---|---|---|
| 1777890539 | 8.33° C | 82% | 1002.4 hPa | 0.25 mm | - | 334 W/m² | - |
| 1777889936 | 8.33° C | 83% | 1002.6 hPa | 0.51 mm | - | 225 W/m² | - |
| 1777889334 | 8.33° C | 82% | 1002.7 hPa | 0.51 mm | - | 206 W/m² | - |
| 1777888723 | 8.33° C | 84% | 1002.8 hPa | 0.25 mm | - | 155 W/m² | - |
| 1777888119 | 8.33° C | 81% | 1003 hPa | 0.25 mm | - | 179 W/m² | - |
| 1777887518 | 8.33° C | 81% | 1003.1 hPa | 0.25 mm | - | 204 W/m² | - |
| 1777886917 | 7.78° C | 82% | 1003.2 hPa | 0.51 mm | - | 211 W/m² | - |
| 1777886318 | 7.78° C | 83% | 1003.3 hPa | 0.76 mm | - | 181 W/m² | - |
| 1777885716 | 7.78° C | 82% | 1003.4 hPa | 1.02 mm | - | 185 W/m² | - |
| 1777885120 | 7.78° C | 81% | 1003.6 hPa | 0 mm | - | 185 W/m² | - |
| 1777884423 | 7.78° C | 85% | 1003.8 hPa | 1.52 mm | - | 143 W/m² | - |
| 1777883823 | 7.78° C | 84% | 1004 hPa | 1.52 mm | - | 114 W/m² | - |
| 1777883222 | 7.78° C | 86% | 1004.1 hPa | 1.27 mm | - | 118 W/m² | - |
| 1777882624 | 8.33° C | 83% | 1004.1 hPa | 1.02 mm | - | 72 W/m² | - |
| 1777882022 | 8.33° C | 79% | 1004 hPa | 0.51 mm | - | 78 W/m² | - |
| 1777881422 | 8.89° C | 75% | 1004 hPa | 0.25 mm | - | 39 W/m² | - |
| 1777880822 | 9.44° C | 67% | 1004.1 hPa | 0 mm | - | 28 W/m² | - |
| 1777880224 | 9.44° C | 58% | 1004.2 hPa | 0 mm | - | 34 W/m² | - |
| 1777879623 | 9.44° C | 56% | 1004.3 hPa | 0 mm | - | 51 W/m² | - |
| 1777879023 | 9.44° C | 55% | 1004.1 hPa | 0 mm | - | 86 W/m² | - |
| 1777878422 | 9.44° C | 56% | 1004.2 hPa | 0 mm | - | 92 W/m² | - |
| 1777877823 | 9.44° C | 55% | 1004 hPa | 0 mm | - | 132 W/m² | - |
| 1777877219 | 9.44° C | 56% | 1003.9 hPa | 0 mm | - | 183 W/m² | - |
| 1777876621 | 9.44° C | 57% | 1004 hPa | 0 mm | - | 276 W/m² | - |
| 1777876019 | 8.89° C | 58% | 1004 hPa | 0 mm | - | 197 W/m² | - |
* Rain latest hour (hover to see other rain measurements)
** Current wind speed in m/s (hover to see current wind gust speed)